Regional Weather Roundup
Issued by NWS

Home | Current Version | Previous Version | Text Only | Print | Product List | Glossary On
Versions: 1 2 3 4 5 6 7 8 9 10 11 12 13 14 15 16 17 18 19 20 21 22 23 24 25 26 27 28 29 30 31 32 33 34 35 36 37 38 39 40 41 42 43 44 45 46 47 48 49 50
000
ASUS44 KOUN 250910
RWROK

WEATHER ROUNDUP FOR OKLAHOMA
NATIONAL WEATHER SERVICE NORMAN OK
400 AM CDT THU AUG 25 2016

NOTE: "FAIR" INDICATES FEW OR NO CLOUDS BELOW 12,000 FEET WITH NO
      SIGNIFICANT WEATHER AND/OR OBSTRUCTIONS TO VISIBILITY.

OKZ001>007-009>012-014-015-017-251000-
NORTHWEST OKLAHOMA AND THE PANHANDLE

CITY           SKY/WX    TMP DP  RH WIND       PRES   REMARKS
GAGE           CLOUDY    69  66  90 S3        30.09S
GUYMON         CLOUDY    65  63  93 NE7       30.09F
ENID/WOODRING  CLOUDY    73  70  88 S3        30.00F
$$

OKZ016-021>023-033>039-044-045-251000-
SOUTHWEST OKLAHOMA

CITY           SKY/WX    TMP DP  RH WIND       PRES   REMARKS
LAWTON/REGL    CLEAR     75  69  81 SE3       30.04S
FREDERICK      CLEAR     75  69  81 S8        30.01S
CLINTON        PTCLDY    71  64  78 NW5       30.09S
HOBART         CLEAR     73  67  81 SW6       30.06R
ALTUS AFB      CLEAR     72  68  88 SE5       30.06F
$$

OKZ018>020-024>031-251000-
CENTRAL OKLAHOMA

CITY           SKY/WX    TMP DP  RH WIND       PRES   REMARKS
OKLAHOMA CITY  PTCLDY    72  69  90 S7        30.04F
OKC/WILEY POST CLEAR     78  68  71 S14       30.03F
OKC/TINKER AFB CLEAR     75  68  79 S12       30.04S
STILLWATER     CLEAR     76  68  76 S9        30.02F
GUTHRIE        CLEAR     79  68  69 S10       30.02S
$$

OKZ008-013-054>072-251000-
NORTHEAST OKLAHOMA

CITY           SKY/WX    TMP DP  RH WIND       PRES   REMARKS
TULSA          CLEAR     80  69  69 S9        30.02S
TULSA/JONES    CLEAR     74  71  91 S3        30.04S
PONCA CITY     CLOUDY    72  68  87 SE7       30.01F
BARTLESVILLE   CLEAR     72  65  78 CALM      30.05F
MUSKOGEE       CLEAR     71  67  87 S6        30.06S
$$

OKZ032-040>043-046>053-073>077-251000-
SOUTH CENTRAL/SOUTHEAST OKLAHOMA

CITY           SKY/WX    TMP DP  RH WIND       PRES   REMARKS
ARDMORE/DWNTWN CLEAR     73  68  83 CALM      30.04S
MCALESTER      CLEAR     75  69  81 S3        30.06S
$$





USA.gov is the U.S. government's official web portal to all federal, state and local government web resources and services.